KD8OUK Weather Reports


Display with metric or nautical units.
time (UTC)temp
F
wind
direction
speed
MPH
gust
MPH
rain 1hr
in
rain 24hr
in
rain mn
in
humidity
%
barometer
mb
20260903001521 84 203 0.0 2.0 0.00 0.00 0.00 79 1017.1
20260903001031 85 225 1.0 2.0 0.00 0.00 0.00 77 1017.1
20260903000523 85 206 1.0 3.0 0.00 0.00 0.00 75 1017.1
20260903000015 86 221 2.0 4.0 0.00 0.00 0.00 74 1017.0
20260902235526 87 213 2.0 4.0 0.00 0.00 0.00 73 1017.0
20260902235018 88 233 2.0 4.0 0.00 0.00 0.00 71 1017.0
20260902234528 88 227 2.0 3.0 0.00 0.00 0.00 72 1017.0
20260902234020 87 217 2.0 4.0 0.00 0.00 0.00 74 1017.0
20260902233525 87 239 2.0 6.0 0.00 0.00 0.00 74 1017.0
20260902233024 87 226 2.0 3.0 0.00 0.00 0.00 73 1017.0
20260902232515 88 243 3.0 5.0 0.00 0.00 0.00 71 1017.0
20260902232020 88 237 2.0 5.0 0.00 0.00 0.00 72 1017.0
20260902231518 88 230 3.0 5.0 0.00 0.00 0.00 71 1017.0
20260902231016 89 219 3.0 4.0 0.00 0.00 0.00 70 1016.9
20260902230520 89 242 3.0 5.0 0.00 0.00 0.00 69 1016.9
20260902230030 90 238 3.0 5.0 0.00 0.00 0.00 68 1017.0
20260902225522 90 241 3.0 5.0 0.00 0.00 0.00 68 1017.0
20260902225033 91 250 3.0 5.0 0.00 0.00 0.00 67 1017.1
20260902224525 91 248 2.0 3.0 0.00 0.00 0.00 67 1017.1
20260902224017 91 226 3.0 5.0 0.00 0.00 0.00 66 1017.1
20260902223527 91 241 3.0 7.0 0.00 0.00 0.00 66 1017.1
20260902223020 91 218 3.0 5.0 0.00 0.00 0.00 65 1017.1
20260902222530 92 246 4.0 6.0 0.00 0.00 0.00 65 1017.1
20260902222022 92 244 4.0 6.0 0.00 0.00 0.00 64 1017.1
20260902221532 93 255 4.0 6.0 0.00 0.00 0.00 63 1017.1
20260902221025 93 246 3.0 5.0 0.00 0.00 0.00 63 1017.1
20260902220517 93 260 4.0 6.0 0.00 0.00 0.00 61 1017.1
20260902220023 93 244 4.0 8.0 0.00 0.00 0.00 62 1017.0
20260902215532 93 244 3.0 5.0 0.00 0.00 0.00 63 1017.0
20260902215024 93 243 4.0 6.0 0.00 0.00 0.00 61 1017.1
20260902214517 94 227 4.0 8.0 0.00 0.00 0.00 61 1017.1
20260902214027 94 211 4.0 5.0 0.00 0.00 0.00 61 1017.1
20260902213519 94 235 4.0 7.0 0.00 0.00 0.00 60 1017.2
20260902213029 94 218 4.0 6.0 0.00 0.00 0.00 60 1017.2
20260902212521 94 229 5.0 7.0 0.00 0.00 0.00 59 1017.2
20260902212032 95 229 4.0 7.0 0.00 0.00 0.00 60 1017.2
20260902211524 95 242 4.0 7.0 0.00 0.00 0.00 58 1017.3
20260902211016 95 262 4.0 6.0 0.00 0.00 0.00 58 1017.3
20260902210527 95 233 4.0 6.0 0.00 0.00 0.00 59 1017.3
20260902210018 95 233 4.0 7.0 0.00 0.00 0.00 58 1017.3
20260902205529 95 233 4.0 7.0 0.00 0.00 0.00 57 1017.3
20260902205021 95 252 4.0 7.0 0.00 0.00 0.00 56 1017.5
20260902204525 96 233 4.0 8.0 0.00 0.00 0.00 55 1017.6
20260902204023 95 283 4.0 6.0 0.00 0.00 0.00 56 1017.6
20260902203515 96 265 5.0 8.0 0.00 0.00 0.00 57 1017.6
20260902203020 95 256 5.0 7.0 0.00 0.00 0.00 56 1017.6
20260902202518 95 213 5.0 8.0 0.00 0.00 0.00 57 1017.8
20260902202016 95 221 4.0 7.0 0.00 0.00 0.00 57 1017.8
20260902201520 96 272 4.0 7.0 0.00 0.00 0.00 56 1017.9
20260902201030 96 235 4.0 9.0 0.00 0.00 0.00 55 1018.0
20260902200522 96 230 4.0 6.0 0.00 0.00 0.00 57 1018.0
20260902200033 95 243 4.0 9.0 0.00 0.00 0.00 57 1018.2
20260902195525 95 201 6.0 8.0 0.00 0.00 0.00 56 1018.2
20260902195017 95 242 6.0 8.0 0.00 0.00 0.00 55 1018.2
20260902194528 96 239 4.0 6.0 0.00 0.00 0.00 56 1018.2
20260902194020 96 181 5.0 7.0 0.00 0.00 0.00 55 1018.2
20260902193530 96 249 4.0 5.0 0.00 0.00 0.00 57 1018.3
20260902193023 97 273 5.0 7.0 0.00 0.00 0.00 56 1018.3
20260902192533 96 255 4.0 6.0 0.00 0.00 0.00 58 1018.3
20260902192025 96 296 4.0 7.0 0.00 0.00 0.00 57 1018.3
20260902191517 96 239 5.0 8.0 0.00 0.00 0.00 57 1018.4
20260902191027 96 242 5.0 8.0 0.00 0.00 0.00 58 1018.6
20260902190520 96 249 4.0 7.0 0.00 0.00 0.00 58 1018.6
20260902190030 96 239 4.0 6.0 0.00 0.00 0.00 58 1018.6
20260902185522 96 236 4.0 6.0 0.00 0.00 0.00 59 1018.6
20260902185032 95 223 4.0 5.0 0.00 0.00 0.00 59 1018.6
20260902184524 96 241 5.0 9.0 0.00 0.00 0.00 56 1018.6
20260902184016 96 245 5.0 7.0 0.00 0.00 0.00 56 1018.6
20260902183527 96 253 4.0 6.0 0.00 0.00 0.00 61 1018.7
20260902183020 95 216 4.0 6.0 0.00 0.00 0.00 61 1018.7
20260902182529 96 265 4.0 8.0 0.00 0.00 0.00 59 1018.8
20260902182021 95 235 3.0 5.0 0.00 0.00 0.00 60 1018.8
20260902181532 95 223 3.0 5.0 0.00 0.00 0.00 59 1018.8
20260902181024 94 244 4.0 7.0 0.00 0.00 0.00 60 1018.9
20260902180516 94 221 4.0 9.0 0.00 0.00 0.00 61 1018.9
20260902180026 95 244 4.0 7.0 0.00 0.00 0.00 60 1019.0
20260902175518 94 220 4.0 7.0 0.00 0.00 0.00 61 1019.0
20260902175022 95 238 5.0 7.0 0.00 0.00 0.00 62 1019.1
20260902174523 94 257 3.0 5.0 0.00 0.00 0.00 63 1019.1
20260902174019 94 222 3.0 4.0 0.00 0.00 0.00 65 1019.2
20260902173517 94 243 3.0 5.0 0.00 0.00 0.00 63 1019.3
20260902173015 94 272 4.0 7.0 0.00 0.00 0.00 61 1019.3
20260902172525 94 305 4.0 6.0 0.00 0.00 0.00 61 1019.5
20260902172017 94 251 4.0 5.0 0.00 0.00 0.00 63 1019.5
20260902171528 94 258 4.0 6.0 0.00 0.00 0.00 63 1019.5
20260902171020 93 256 3.0 5.0 0.00 0.00 0.00 64 1019.5
20260902170530 93 246 4.0 6.0 0.00 0.00 0.00 62 1019.6
20260902170023 93 283 5.0 7.0 0.00 0.00 0.00 62 1019.7
20260902165515 93 319 4.0 7.0 0.00 0.00 0.00 62 1019.7
20260902165025 92 315 4.0 8.0 0.00 0.00 0.00 65 1019.7
20260902164519 91 234 3.0 6.0 0.00 0.00 0.00 65 1019.7
20260902164054 91 135 3.0 3.0 0.00 0.00 0.00 65 1019.7
20260902162554 92 347 4.0 4.0 0.00 0.00 0.00 67 1019.7
20260902161534 90 224 3.0 5.0 0.00 0.00 0.00 69 1019.7
20260902140518 78 268 3.0 4.0 0.00 0.00 0.00 90 1019.7
20260902140029 78 217 3.0 4.0 0.00 0.00 0.00 91 1019.8
20260902135521 78 247 2.0 4.0 0.00 0.00 0.00 92 1019.8
20260902135031 77 229 2.0 4.0 0.00 0.00 0.00 93 1019.7
20260902134523 77 233 2.0 5.0 0.00 0.00 0.00 93 1019.6
20260902134015 76 244 2.0 4.0 0.00 0.00 0.00 94 1019.7
20260902133526 76 244 2.0 3.0 0.00 0.00 0.00 96 1019.7
20260902133019 76 272 2.0 4.0 0.00 0.00 0.00 97 1019.7
20260902132528 75 247 2.0 4.0 0.00 0.00 0.00 98 1019.8
20260902132027 75 221 2.0 4.0 0.00 0.00 0.00 99 1019.8
20260902131525 74 232 3.0 4.0 0.00 0.00 0.00 99 1019.7
20260902131017 74 235 2.0 4.0 0.00 0.00 0.00 99 1019.6
20260902130521 74 252 1.0 3.0 0.00 0.00 0.00 99 1019.6
20260902130019 73 0.0 0.0 0.00 0.00 0.00 99 1019.6
20260902125517 73 0.0 0.0 0.00 0.00 0.00 99 1019.6
20260902125015 73 234 0.0 2.0 0.00 0.00 0.00 99 1019.7
20260902124531 73 0.0 0.0 0.00 0.00 0.00 99 1019.7
20260902124023 72 203 0.0 2.0 0.00 0.00 0.00 99 1019.7
20260902123516 72 248 0.0 2.0 0.00 0.00 0.00 99 1019.6
20260902123027 72 0.0 0.0 0.00 0.00 0.00 99 1019.6
20260902122518 71 0.0 0.0 0.00 0.00 0.00 99 1019.6
20260902122028 71 0.0 0.0 0.00 0.00 0.00 99 1019.6
20260902121520 71 0.0 0.0 0.00 0.00 0.00 99 1019.6
20260902121031 71 0.0 0.0 0.00 0.00 0.00 99 1019.5
20260902120523 71 0.0 0.0 0.00 0.00 0.00 99 1019.5
20260902120033 71 0.0 0.0 0.00 0.00 0.00 99 1019.3
20260902115525 71 0.0 0.0 0.00 0.00 0.00 99 1019.3
20260902115017 70 0.0 0.0 0.00 0.00 0.00 99 1019.3
20260902114527 70 0.0 0.0 0.00 0.00 0.00 99 1019.3
20260902114020 70 0.0 0.0 0.00 0.00 0.00 99 1019.3
20260902113530 70 0.0 0.0 0.00 0.00 0.00 99 1019.1
20260902113023 70 0.0 0.0 0.00 0.00 0.00 99 1019.1
20260902112532 70 0.0 0.0 0.00 0.00 0.00 99 1019.2
20260902112024 70 0.0 0.0 0.00 0.00 0.00 99 1019.2
20260902111517 70 0.0 0.0 0.00 0.00 0.00 99 1019.2
20260902111027 71 0.0 0.0 0.00 0.00 0.00 99 1019.1
20260902110519 71 0.0 0.0 0.00 0.00 0.00 99 1019.1
20260902110029 71 0.0 0.0 0.00 0.00 0.00 99 1019.2
20260902105521 71 0.0 0.0 0.00 0.00 0.00 99 1019.2
20260902105032 71 308 2.0 4.0 0.00 0.00 0.00 99 1019.0
20260902104524 71 0.0 0.0 0.00 0.00 0.00 99 1019.0
20260902104016 71 0.0 0.0 0.00 0.00 0.00 99 1018.9
20260902103526 71 173 1.0 2.0 0.00 0.00 0.00 99 1018.9
20260902103025 71 0.0 0.0 0.00 0.00 0.00 99 1018.9
20260902102523 71 0.0 0.0 0.00 0.00 0.00 99 1018.8
20260902102015 71 0.0 0.0 0.00 0.00 0.00 99 1018.8
20260902101520 71 0.0 0.0 0.00 0.00 0.00 99 1018.8
20260902101017 71 0.0 0.0 0.00 0.00 0.00 99 1018.8
20260902100516 71 0.0 0.0 0.00 0.00 0.00 99 1018.8
20260902100020 71 0.0 0.0 0.00 0.00 0.00 99 1018.9
20260902095530 71 0.0 1.0 0.00 0.00 0.00 99 1018.9
20260902095022 71 0.0 0.0 0.00 0.00 0.00 99 1018.8
20260902094533 71 0.0 0.0 0.00 0.00 0.00 99 1018.8
20260902094025 71 0.0 0.0 0.00 0.00 0.00 99 1018.7
20260902093517 71 0.0 0.0 0.00 0.00 0.00 99 1018.7
20260902093027 71 0.0 0.0 0.00 0.00 0.00 99 1018.7
20260902092519 71 0.0 0.0 0.00 0.00 0.00 99 1018.6
20260902092029 71 158 0.0 2.0 0.00 0.00 0.00 99 1018.6
20260902091521 71 135 1.0 3.0 0.00 0.00 0.00 99 1018.6
20260902091032 71 124 0.0 2.0 0.00 0.00 0.00 99 1018.6
20260902090524 71 109 1.0 3.0 0.00 0.00 0.00 99 1018.6
20260902090016 72 0.0 0.0 0.00 0.00 0.00 99 1018.7
20260902085526 72 0.0 0.0 0.00 0.00 0.00 99 1018.7
20260902085018 72 0.0 0.0 0.00 0.00 0.00 99 1018.6
20260902084529 72 0.0 0.0 0.00 0.00 0.00 99 1018.5
20260902084021 72 0.0 0.0 0.00 0.00 0.00 99 1018.5
20260902083532 72 0.0 0.0 0.00 0.00 0.00 99 1018.5
20260902083023 72 0.0 0.0 0.00 0.00 0.00 99 1018.5
20260902082515 72 0.0 0.0 0.00 0.00 0.00 99 1018.4
20260902082026 72 0.0 0.0 0.00 0.00 0.00 99 1018.3
20260902081518 72 0.0 0.0 0.00 0.00 0.00 99 1018.4
20260902081028 73 0.0 0.0 0.00 0.00 0.00 99 1018.5
20260902080520 73 126 1.0 2.0 0.00 0.00 0.00 99 1018.5
20260902080031 73 98 1.0 2.0 0.00 0.00 0.00 99 1018.3
20260902075522 73 0.0 0.0 0.00 0.00 0.00 98 1018.3
20260902075027 73 0.0 0.0 0.00 0.00 0.00 98 1018.3
20260902074526 73 0.0 0.0 0.00 0.00 0.00 97 1018.3
20260902074017 73 0.0 0.0 0.00 0.00 0.00 97 1018.3
20260902073521 74 0.0 0.0 0.00 0.00 0.00 97 1018.3
20260902073019 74 180 0.0 2.0 0.00 0.00 0.00 97 1018.3
20260902072518 74 0.0 0.0 0.00 0.00 0.00 97 1018.3
20260902072016 74 0.0 0.0 0.00 0.00 0.00 96 1018.3
20260902071532 74 90 1.0 2.0 0.00 0.00 0.00 96 1018.3
20260902071024 75 90 0.0 2.0 0.00 0.00 0.00 95 1018.3
20260902070516 75 90 1.0 2.0 0.00 0.00 0.00 95 1018.4
20260902070027 75 252 1.0 2.0 0.00 0.00 0.00 94 1018.5
20260902065519 75 68 0.0 2.0 0.00 0.00 0.00 94 1018.5
20260902065029 75 222 1.0 2.0 0.00 0.00 0.00 94 1018.6
20260902064521 75 286 2.0 4.0 0.00 0.00 0.00 94 1018.6
20260902064032 75 0.0 0.0 0.00 0.00 0.00 93 1018.6
20260902063524 75 203 0.0 2.0 0.00 0.00 0.00 93 1018.6
20260902063016 75 0.0 2.0 0.00 0.00 0.00 93 1018.6
20260902062526 75 270 0.0 2.0 0.00 0.00 0.00 93 1018.7
20260902062018 75 227 1.0 2.0 0.00 0.00 0.00 93 1018.7
20260902061528 75 232 1.0 3.0 0.00 0.00 0.00 93 1018.6
20260902061020 75 225 0.0 2.0 0.00 0.00 0.00 92 1018.6
20260902060531 76 90 0.0 2.0 0.00 0.00 0.00 92 1018.6
20260902060023 76 0.0 1.0 0.00 0.00 0.00 92 1018.6
20260902055515 76 232 1.0 2.0 0.00 0.00 0.00 92 1018.6
20260902055026 76 0.0 1.0 0.00 0.00 0.00 91 1018.6
20260902054518 76 216 0.0 2.0 0.00 0.00 0.00 91 1018.6
20260902054023 76 0.0 0.0 0.00 0.00 0.00 91 1018.6
20260902053533 76 0.0 0.0 0.00 0.00 0.00 90 1018.5
20260902053025 77 0.0 0.0 0.00 0.00 0.00 90 1018.5
20260902052517 77 247 0.0 2.0 0.00 0.00 0.00 90 1018.3
20260902052027 77 235 1.0 3.0 0.00 0.00 0.00 90 1018.3
20260902051518 77 216 1.0 2.0 0.00 0.00 0.00 90 1018.3
20260902051029 77 238 1.0 3.0 0.00 0.00 0.00 90 1018.3
20260902050521 77 229 1.0 4.0 0.00 0.00 0.00 90 1018.3
20260902050025 77 236 2.0 5.0 0.00 0.00 0.00 90 1018.3
20260902045523 77 218 0.0 2.0 0.00 0.00 0.00 90 1018.3
20260902045015 77 272 1.0 2.0 0.00 0.00 0.00 90 1018.3
20260902044519 77 252 1.0 3.0 0.00 0.00 0.00 90 1018.3
20260902044018 77 233 1.0 4.0 0.00 0.00 0.00 91 1018.2
20260902043516 77 233 2.0 4.0 0.00 0.00 0.00 91 1018.2
20260902043020 77 286 3.0 5.0 0.00 0.00 0.00 91 1018.2
20260902042530 77 243 2.0 5.0 0.00 0.00 0.00 91 1018.1
20260902042022 77 217 3.0 4.0 0.00 0.00 0.00 91 1018.1
20260902041533 77 241 3.0 5.0 0.00 0.00 0.00 92 1018.1
20260902041025 77 228 2.0 4.0 0.00 0.00 0.00 92 1018.1
20260902040518 77 224 3.0 4.0 0.00 0.00 0.00 93 1018.1
20260902040027 77 233 3.0 5.0 0.00 0.00 0.00 93 1018.1
20260902035520 77 228 2.0 4.0 0.00 0.00 0.00 93 1018.1
20260902035030 77 230 3.0 4.0 0.00 0.00 0.00 93 1018.2
20260902034522 77 222 2.0 5.0 0.00 0.00 0.00 93 1018.3
20260902034029 77 238 2.0 3.0 0.00 0.00 0.00 93 1018.3
20260902033520 77 231 2.0 3.0 0.00 0.00 0.00 93 1018.3
20260902033029 77 230 1.0 3.0 0.00 0.00 0.00 93 1018.3
20260902032523 77 225 1.0 2.0 0.00 0.00 0.00 93 1018.4
20260902032031 77 229 1.0 3.0 0.00 0.00 0.00 93 1018.5
20260902031523 77 238 1.0 2.0 0.00 0.00 0.00 93 1018.4
20260902031016 77 225 0.0 2.0 0.00 0.00 0.00 93 1018.3
20260902030526 77 236 0.0 2.0 0.00 0.00 0.00 93 1018.3
20260902030019 77 0.0 1.0 0.00 0.00 0.00 93 1018.5
20260902025529 77 212 0.0 2.0 0.00 0.00 0.00 93 1018.5
20260902025021 77 0.0 0.0 0.00 0.00 0.00 93 1018.5
20260902024531 77 0.0 1.0 0.00 0.00 0.00 93 1018.5
20260902024023 77 0.0 0.0 0.00 0.00 0.00 93 1018.5
20260902023515 77 0.0 0.0 0.00 0.00 0.00 93 1018.5
20260902023026 77 225 0.0 2.0 0.00 0.00 0.00 93 1018.5
20260902022518 77 218 0.0 2.0 0.00 0.00 0.00 94 1018.3
20260902022028 77 222 1.0 2.0 0.00 0.00 0.00 94 1018.3
20260902021520 77 213 1.0 2.0 0.00 0.00 0.00 94 1018.3
20260902021025 77 213 1.0 3.0 0.00 0.00 0.00 94 1018.3
20260902020523 77 203 1.0 3.0 0.00 0.00 0.00 94 1018.3
20260902020021 77 225 0.0 2.0 0.00 0.00 0.00 95 1018.3
20260902015519 77 203 0.0 1.0 0.00 0.00 0.00 95 1018.3
20260902015017 77 0.0 0.0 0.00 0.00 0.00 95 1018.3
20260902014515 77 0.0 0.0 0.00 0.00 0.00 95 1018.3
20260902014020 77 0.0 0.0 0.00 0.00 0.00 96 1018.2
20260902013530 77 0.0 0.0 0.00 0.00 0.00 96 1018.2
20260902013022 77 0.0 0.0 0.00 0.00 0.00 95 1018.2
20260902012532 77 0.0 0.0 0.00 0.00 0.00 95 1018.1
20260902012025 77 0.0 0.0 0.00 0.00 0.00 94 1018.1
20260902011518 78 0.0 0.0 0.00 0.00 0.00 94 1018.1
20260902011027 78 0.0 0.0 0.00 0.00 0.00 94 1018.1
20260902010519 78 0.0 0.0 0.00 0.00 0.00 94 1018.1
20260902010029 79 0.0 0.0 0.00 0.00 0.00 93 1017.8
20260902005521 79 146 0.0 2.0 0.00 0.00 0.00 92 1017.8
20260902005031 80 116 1.0 2.0 0.00 0.00 0.00 92 1017.9
20260902004524 80 110 2.0 2.0 0.00 0.00 0.00 91 1018.0
20260902004016 81 135 0.0 2.0 0.00 0.00 0.00 90 1017.9
20260902003526 82 0.0 0.0 0.00 0.00 0.00 88 1017.8
20260902003018 82 109 1.0 2.0 0.00 0.00 0.00 87 1017.8
20260902002528 83 113 1.0 2.0 0.00 0.00 0.00 86 1017.9
20260902002020 84 101 1.0 2.0 0.00 0.00 0.00 84 1018.0